Location: Elstree
(51.6403°N, 0.2969°W)
Time: 22:25:25
(UTC+00:00)

Tiangong - Pass Details

Date: 06 December 2022
Orbit: 383 x 386 km, 41.5° (Epoch: 29 January)

Event Time Altitude Azimuth Distance (km) Brightness Sun altitude
Rises 17:37:08 0° 241° (WSW) 2,256 3.4 -15.2°
Reaches altitude 10° 17:39:57 10° 214° (SSW) 1,404 1.4 -15.6°
Maximum altitude 17:41:37 14° 181° (S) 1,210 0.6 -15.9°
Drops below altitude 10° 17:43:18 10° 149° (SSE) 1,407 0.6 -16.1°
Enters shadow 17:43:28 - 147° (SSE) 1,445 0.6 -16.2°
